timestamp,surface_pressure_avg,surface_temp_avg,battery_voltage,lat,long
2019-11-08 00:09:01+00:00,275.3181,8.36,12.73,47.84626,-54.09684
2019-11-08 00:19:01+00:00,274.1847,8.30,12.73,47.84626,-54.09684
2019-11-08 00:29:01+00:00,267.7080,8.20,12.73,47.84626,-54.09684
2019-11-08 00:39:01+00:00,260.9514,8.29,12.73,47.84626,-54.09684
2019-11-08 00:49:01+00:00,255.1864,8.30,12.73,47.84626,-54.09684
2019-11-08 00:59:01+00:00,248.9531,8.20,12.73,47.84626,-54.09684
2019-11-08 01:09:01+00:00,245.0314,8.20,12.73,47.84626,-54.09684
2019-11-08 01:19:01+00:00,242.1164,8.10,12.73,47.84626,-54.09684
2019-11-08 01:29:01+00:00,240.8631,7.96,12.73,47.84626,-54.09684
2019-11-08 01:39:01+00:00,240.0582,8.01,12.73,47.84626,-54.09684
2019-11-08 01:49:01+00:00,237.7448,7.80,12.73,47.84626,-54.09684
2019-11-08 01:59:01+00:00,236.7214,7.70,12.73,47.84626,-54.09684
2019-11-08 02:09:01+00:00,237.5364,7.60,12.73,47.84626,-54.09684
2019-11-08 02:19:01+00:00,234.4098,7.56,12.73,47.84626,-54.09684
2019-11-08 02:29:01+00:00,226.3798,7.64,12.73,47.84626,-54.09684
2019-11-08 02:39:01+00:00,225.4198,7.70,12.73,47.84626,-54.09684
2019-11-08 02:49:01+00:00,230.8665,7.75,12.73,47.84626,-54.09684
2019-11-08 02:59:01+00:00,232.8914,7.80,12.73,47.84626,-54.09684
2019-11-08 03:09:01+00:00,232.7964,7.89,12.73,47.84626,-54.09684
2019-11-08 03:19:01+00:00,240.1498,8.00,12.73,47.84626,-54.09684
2019-11-08 03:29:01+00:00,245.8198,8.00,12.73,47.84626,-54.09684
2019-11-08 03:39:01+00:00,250.3081,8.07,12.73,47.84626,-54.09684
2019-11-08 03:49:01+00:00,254.5664,8.10,12.73,47.84626,-54.09684
2019-11-08 03:59:01+00:00,262.1814,8.10,12.73,47.84626,-54.09684
2019-11-08 04:09:01+00:00,257.7097,8.10,12.73,47.84626,-54.09684
2019-11-08 04:19:01+00:00,256.4931,8.10,12.73,47.84626,-54.09684
2019-11-08 04:29:01+00:00,263.4564,8.19,12.73,47.84626,-54.09684
2019-11-08 04:39:01+00:00,270.0731,8.20,12.73,47.84626,-54.09684
2019-11-08 04:49:01+00:00,267.6080,8.20,12.73,47.84626,-54.09684
2019-11-08 04:59:01+00:00,269.5880,8.20,12.73,47.84626,-54.09684
2019-11-08 05:09:01+00:00,275.9631,8.26,12.73,47.84626,-54.09684
2019-11-08 05:19:01+00:00,281.8814,8.30,12.73,47.84626,-54.09684
2019-11-08 05:29:01+00:00,283.3163,8.30,12.73,47.84626,-54.09684
2019-11-08 05:39:01+00:00,287.1880,8.30,12.73,47.84626,-54.09684
2019-11-08 05:49:01+00:00,290.9847,8.30,12.73,47.84626,-54.09684
2019-11-08 05:59:01+00:00,296.5031,8.30,12.73,47.84626,-54.09684
2019-11-08 06:09:01+00:00,296.1214,8.30,12.73,47.84626,-54.09684
2019-11-08 06:19:01+00:00,293.2831,8.38,12.73,47.84626,-54.09684
2019-11-08 06:29:01+00:00,295.5881,8.40,12.73,47.84626,-54.09684
2019-11-08 06:39:01+00:00,302.8697,8.40,12.73,47.84626,-54.09684
2019-11-08 06:49:01+00:00,308.1314,8.49,12.73,47.84626,-54.09684
2019-11-08 06:59:01+00:00,319.6797,8.50,12.73,47.84626,-54.09684
2019-11-08 07:09:01+00:00,329.0797,8.50,12.73,47.84626,-54.09684
2019-11-08 07:19:01+00:00,332.1763,8.50,12.73,47.84626,-54.09684
2019-11-08 07:29:01+00:00,330.8831,8.56,12.73,47.84626,-54.09684
2019-11-08 07:39:01+00:00,332.7613,8.60,12.73,47.84626,-54.09684
2019-11-08 07:49:01+00:00,335.6395,8.60,12.73,47.84626,-54.09684
2019-11-08 07:59:01+00:00,337.3196,8.60,12.73,47.84626,-54.09684
2019-11-08 08:09:01+00:00,339.0280,8.65,12.73,47.84626,-54.09684
2019-11-08 08:19:01+00:00,334.5330,8.60,12.73,47.84626,-54.09684
2019-11-08 08:29:01+00:00,337.8846,8.60,12.73,47.84626,-54.09684
2019-11-08 08:39:01+00:00,343.0363,8.60,12.73,47.84626,-54.09684
2019-11-08 08:49:01+00:00,342.1363,8.60,12.73,47.84626,-54.09684
2019-11-08 08:59:01+00:00,343.8046,8.67,12.73,47.84626,-54.09684
2019-11-08 09:09:01+00:00,347.5197,8.70,12.73,47.84626,-54.09684
2019-11-08 09:19:01+00:00,354.6329,8.70,12.73,47.84626,-54.09684
2019-11-08 09:29:01+00:00,352.8747,8.70,12.73,47.84626,-54.09684
2019-11-08 09:39:01+00:00,353.1513,8.70,12.73,47.84626,-54.09684
2019-11-08 09:49:01+00:00,354.1813,8.62,12.73,47.84626,-54.09684
2019-11-08 09:59:01+00:00,353.1846,8.60,12.73,47.84626,-54.09684
2019-11-08 10:09:01+00:00,347.8697,8.59,12.73,47.84626,-54.09684
2019-11-08 10:19:01+00:00,348.8896,8.58,12.73,47.84626,-54.09684
2019-11-08 10:29:01+00:00,348.0980,8.55,12.73,47.84626,-54.09684
2019-11-08 10:39:01+00:00,341.4863,8.50,12.73,47.84626,-54.09684
2019-11-08 10:49:01+00:00,337.0397,8.47,12.73,47.84626,-54.09684
2019-11-08 10:59:01+00:00,340.4230,8.40,12.73,47.84626,-54.09684
2019-11-08 11:09:01+00:00,336.5513,8.40,12.73,47.84626,-54.09684
2019-11-08 11:19:01+00:00,321.3364,8.40,12.73,47.84626,-54.09684
2019-11-08 11:29:01+00:00,317.9046,8.40,12.73,47.84626,-54.09684
2019-11-08 11:39:01+00:00,318.3546,8.40,12.73,47.84626,-54.09684
2019-11-08 11:49:01+00:00,311.3597,8.40,12.73,47.84626,-54.09684
2019-11-08 11:59:01+00:00,298.7830,8.40,12.73,47.84626,-54.09684
2019-11-08 12:09:01+00:00,299.8563,8.40,12.73,47.84626,-54.09684
2019-11-08 12:19:01+00:00,297.7580,8.40,12.73,47.84626,-54.09684
2019-11-08 12:29:01+00:00,288.5580,8.40,12.73,47.84626,-54.09684
2019-11-08 12:39:01+00:00,283.1981,8.39,12.73,47.84626,-54.09684
2019-11-08 12:49:01+00:00,283.0847,8.33,12.73,47.84626,-54.09684
2019-11-08 12:59:01+00:00,278.0647,8.32,12.73,47.84626,-54.09684
2019-11-08 13:09:01+00:00,270.5264,8.33,12.73,47.84626,-54.09684
2019-11-08 13:19:01+00:00,266.9131,8.33,12.73,47.84626,-54.09684
2019-11-08 13:29:01+00:00,266.2014,8.32,12.73,47.84626,-54.09684
2019-11-08 13:39:01+00:00,261.4898,8.32,12.73,47.84626,-54.09684
2019-11-08 13:49:01+00:00,258.3797,8.32,12.73,47.84626,-54.09684
2019-11-08 13:59:01+00:00,258.8631,8.35,12.73,47.84626,-54.09684
2019-11-08 14:09:01+00:00,260.1531,8.38,12.73,47.84626,-54.09684
2019-11-08 14:19:01+00:00,252.6331,8.40,12.81,47.84626,-54.09684
2019-11-08 14:29:01+00:00,245.7080,8.40,12.81,47.84626,-54.09684
2019-11-08 14:39:01+00:00,241.2014,8.40,12.81,47.84626,-54.09684
2019-11-08 14:49:01+00:00,241.8448,8.40,12.81,47.84626,-54.09684
2019-11-08 14:59:01+00:00,242.0014,8.40,12.81,47.84626,-54.09684
2019-11-08 15:09:01+00:00,239.6414,8.40,12.81,47.84626,-54.09684
2019-11-08 15:19:01+00:00,238.2998,8.40,12.81,47.84626,-54.09684
2019-11-08 15:29:01+00:00,240.1931,8.40,12.81,47.84626,-54.09684
2019-11-08 15:39:01+00:00,242.0481,8.40,12.81,47.84626,-54.09684
2019-11-08 15:49:01+00:00,243.0081,8.40,12.81,47.84626,-54.09684
2019-11-08 15:59:01+00:00,245.1098,8.40,12.81,47.84626,-54.09684
2019-11-08 16:09:01+00:00,242.6915,8.40,12.81,47.84626,-54.09684
2019-11-08 16:19:01+00:00,241.8664,8.40,12.81,47.84626,-54.09684
2019-11-08 16:29:01+00:00,247.5964,8.40,12.81,47.84626,-54.09684
2019-11-08 16:39:01+00:00,253.1514,8.40,12.81,47.84626,-54.09684
2019-11-08 16:49:01+00:00,250.9797,8.40,12.81,47.84626,-54.09684
2019-11-08 16:59:01+00:00,249.7014,8.40,12.81,47.84626,-54.09684
2019-11-08 17:09:01+00:00,257.5381,8.40,12.81,47.84626,-54.09684
2019-11-08 17:19:01+00:00,266.9397,8.40,12.81,47.84626,-54.09684
2019-11-08 17:29:01+00:00,269.3830,8.40,12.81,47.84626,-54.09684
2019-11-08 17:39:01+00:00,269.1114,8.40,12.81,47.84626,-54.09684
2019-11-08 17:49:01+00:00,271.2847,8.40,12.81,47.84626,-54.09684
2019-11-08 17:59:01+00:00,276.7048,8.40,12.81,47.84626,-54.09684
2019-11-08 18:09:01+00:00,276.4047,8.40,12.81,47.84626,-54.09684
2019-11-08 18:19:01+00:00,275.5364,8.40,12.81,47.84626,-54.09684
2019-11-08 18:29:01+00:00,280.9031,8.40,12.81,47.84626,-54.09684
2019-11-08 18:39:01+00:00,290.0081,8.40,12.81,47.84626,-54.09684
2019-11-08 18:49:01+00:00,289.9364,8.40,12.81,47.84626,-54.09684
2019-11-08 18:59:01+00:00,292.1714,8.40,12.81,47.84626,-54.09684
2019-11-08 19:09:01+00:00,307.1764,8.40,12.81,47.84626,-54.09684
2019-11-08 19:19:01+00:00,316.2696,8.40,12.73,47.84626,-54.09684
2019-11-08 19:29:01+00:00,311.2814,8.40,12.73,47.84626,-54.09684
2019-11-08 19:39:01+00:00,312.0714,8.40,12.73,47.84626,-54.09684
2019-11-08 19:49:01+00:00,323.2614,8.40,12.73,47.84626,-54.09684
2019-11-08 19:59:01+00:00,330.0179,8.40,12.73,47.84626,-54.09684
2019-11-08 20:09:01+00:00,330.3479,8.40,12.73,47.84626,-54.09684
2019-11-08 20:19:01+00:00,330.6113,8.40,12.73,47.84626,-54.09684
2019-11-08 20:29:01+00:00,341.1213,8.40,12.73,47.84626,-54.09684
2019-11-08 20:39:01+00:00,343.3813,8.40,12.73,47.84626,-54.09684
2019-11-08 20:49:01+00:00,344.5063,8.40,12.73,47.84626,-54.09684
2019-11-08 20:59:01+00:00,351.4163,8.40,12.73,47.84626,-54.09684
2019-11-08 21:09:01+00:00,356.7396,8.40,12.73,47.84626,-54.09684
2019-11-08 21:19:01+00:00,353.0413,8.41,12.73,47.84626,-54.09684
2019-11-08 21:29:01+00:00,346.7046,8.43,12.73,47.84626,-54.09684
2019-11-08 21:39:01+00:00,356.3913,8.46,12.73,47.84626,-54.09684
2019-11-08 21:49:01+00:00,361.2546,8.50,12.73,47.84626,-54.09684
2019-11-08 21:59:01+00:00,354.7279,8.50,12.73,47.84626,-54.09684
2019-11-08 22:09:01+00:00,353.9297,8.50,12.73,47.84626,-54.09684
2019-11-08 22:19:01+00:00,349.4330,8.50,12.73,47.84626,-54.09684
2019-11-08 22:29:01+00:00,340.5679,8.50,12.73,47.84626,-54.09684
2019-11-08 22:39:01+00:00,339.3163,8.50,12.73,47.84626,-54.09684
2019-11-08 22:49:01+00:00,341.8313,8.50,12.73,47.84626,-54.09684
2019-11-08 22:59:01+00:00,334.7446,8.49,12.73,47.84626,-54.09684
2019-11-08 23:09:01+00:00,327.6363,8.47,12.73,47.84626,-54.09684
2019-11-08 23:19:01+00:00,332.4714,8.48,12.73,47.84626,-54.09684
2019-11-08 23:29:01+00:00,329.7780,8.48,12.73,47.84626,-54.09684
2019-11-08 23:39:01+00:00,313.6930,8.47,12.73,47.84626,-54.09684
2019-11-08 23:49:01+00:00,306.0747,8.45,12.73,47.84626,-54.09684
2019-11-08 23:59:01+00:00,305.8381,8.46,12.73,47.84626,-54.09684
